SCP
-0 0 0 0 0 0 0 0 0 0 0 0 0 0 0 0 0 0 0 0 0 0 0 0 0 0 0 0 0 0 0 0 0 0 0 0 0 0 0 0 0 0 0 0 0
0 0 0 0 0 -0 0 0 0 0 0 0 0 0 0 0 0 0 0 0 0 0 0 0 0 0 0 0 0 0 0 0 0 0 0 0 0 0 0 0 0 0 0 0 0
0 0 0 0 0 0 0 0 0 -0 -0 0 0 0 0 0 0 0 0 0 0 0 0 0 0 0 0 0 0 0 0 0 0 0 0 0 0 0 0 0 0 0 0 0 0
0 0 0 0 0 -0 -0 0 0 0 0 0 0 0 0 0 0 0 0 0 0 0 0 0 0 0 0 0 0 0 0 0 0 0 0 0 0 0 0 0 0 0 0 0 0
0 0 0 0 0 -0 0 0 0 -0 -0 0 0 0 0 0 0 0 0 0 0 0 0 0 0 0 0 0 0 0 0 0 0 0 0 0 0 0 0 0 0 0 0 0 0
0 0 0 0 0 -0 0 -0 0 -0 -0 0 0 0 0 0 0 0 0 0 0 0 0 0 0 0 0 0 0 0 0 0 0 0 0 0 0 0 0 0 0 0 0 0 0
0 0 0 0 0 0 0 0 0 0 -0 0 0 0 0 0 0 0 0 0 0 0 0 0 0 0 0 0 0 0 0 0 0 0 0 0 0 0 0 0 0 0 0 0 0
0 0 0 0 0 0 0 0 0 -0 -0 0 0 0 0 0 0 0 0 0 0 0 0 0 0 0 0 0 0 0 0 0 0 0 0 0 0 0 0 0 0 0 0 0 0
0 0 0 0 0 0 0 0 0 0 0 0 0 0 0 0 0 0 0 0 0 0 0 0 0 0 0 0 0 0 0 0 0 0 0 0 0 0 0 0 0 0 0 0 0
0 0 -0 0 0 0 0 0 0 0 0 0 0 0 0 0 0 0 0 0 0 0 0 0 0 0 0 0 0 0 0 0 0 0 0 0 0 0 0 0 0 0 0 0 0
0 0 -0 -0 0 0 0 0 0 0 0 0 0 0 0 0 0 0 0 0 0 0 0 0 0 0 0 0 0 0 0 0 0 0 0 0 0 0 0 0 0 0 0 0 0
0 0 -0 -0 -0 0 -0 0 0 0 0 0 0 0 0 0 0 0 0 0 0 0 0 0 0 0 0 0 0 0 0 0 0 0 0 0 0 0 0 0 0 0 0 0 0
0 0 0 0 0 0 0 0 0 0 0 0 0 0 0 0 0 0 0 0 0 0 0 0 0 0 0 0 0 0 0 0 0 0 0 0 -0 0 0 0 0 0 0 0 0
0 0 0 -0 0 0 0 0 0 0 0 0 0 0 0 0 0 0 0 0 0 0 0 0 0 0 0 0 0 0 0 0 0 0 0 0 0 0 0 0 0 0 0 0 0
0 0 0 -0 0 0 0 0 0 0 0 0 0 0 0 0 0 0 0 0 0 0 0 0 0 0 0 0 0 0 0 0 0 0 0 0 0 -0 0 0 0 0 0 0 0
-0 0 0 0 0 0 0 0 0 0 0 0 0 0 0 0 0 0 0 0 0 0 0 0 0 0 0 0 0 0 0 0 0 0 0 -0 0 0 0 0 0 0 0 0 0
-0 -0 -0 -0 -0 0 0 0 0 0 0 0 0 0 0 0 0 0 0 0 0 0 0 0 0 0 0 0 0 0 0 0 0 0 0 -0 -0 0 0 0 0 0 0 0 0
-0 -0 -0 -0 0 0 0 -0 -0 0 0 0 0 0 0 0 0 0 0 0 0 0 0 0 0 0 0 0 0 0 0 0 0 0 0 0 0 0 0 0 0 0 0 0 0
-0 -0 -0 0 0 -0 -0 -0 -0 -0 0 0 0 0 0 0 0 0 0 0 0 0 0 0 0 0 0 0 0 0 0 0 0 0 0 -0 0 0 0 0 0 0 0 0 0
-0 -0 -0 0 0 -0 -0 -0 -0 -0 -0 0 0 0 0 0 0 0 0 0 0 0 0 0 0 0 0 0 0 0 0 0 0 0 0 0 -0 -0 0 0 0 0 0 0 0
-0 -0 -0 -0 0 -0 -0 -0 -0 -0 -0 -0 -0 0 0 0 0 0 0 0 0 0 0 0 0 0 0 0 0 0 0 0 0 0 0 0 0 0 0 0 0 0 0 0 -0
0 0 0 -0 -0 0 0 -0 -0 -0 -0 -0 -0 -0 -0 0 0 0 0 0 0 0 0 0 0 0 0 0 0 0 0 0 0 0 0 0 0 0 0 0 0 0 0 0 -0
0 0 0 0 0 0 0 0 0 -0 -0 -0 -0 -0 0 -0 0 0 0 0 0 0 0 0 0 0 0 0 0 0 0 0 0 0 0 0 0 0 0 0 0 0 0 0 0
0 0 0 0 0 0 0 0 0 0 0 0 0 0 0 0 0 0 0 0 0 0 0 0 0 0 0 0 0 0 0 0 0 0 0 0 0 0 0 0 0 0 -0 -0 -0
0 0 0 0 0 0 0 0 0 0 0 0 0 0 0 0 0 0 0 0 0 0 0 0 0 0 0 0 0 0 0 0 0 0 0 0 0 0 0 0 0 0 0 0 0
0 0 0 0 0 0 0 0 0 0 0 0 0 0 0 0 0 0 0 0 0 0 0 0 0 0 0 0 0 -0 0 0 0 0 0 0 0 0 0 0 0 0 0 -0 -0
0 0 0 0 0 0 0 0 0 0 0 0 0 0 0 0 0 0 0 0 0 0 0 0 0 0 0 0 0 0 0 0 0 0 0 0 0 0 0 0 0 -0 -0 -0 0
Wind_Speed_500mb
35 31 23 14 6 33 40 54 37 32 38 25 17 17 22 24 31 32 23 27 40 29 27 27 32 33 26 19 15 14 8 6 9 8 8 4 9 9 10 20 6 12 30 39 50
35 34 28 17 9 20 37 32 32 37 43 21 19 14 23 26 24 22 24 33 35 27 34 32 37 33 13 11 12 13 6 9 4 1 6 6 11 15 9 11 8 20 32 53 49
29 37 29 21 11 21 15 28 27 28 28 25 20 11 24 28 13 11 26 37 31 34 35 33 32 25 15 11 12 5 5 7 4 8 8 11 9 7 27 2 16 43 55 51 53
28 29 23 13 26 50 35 34 32 25 24 22 17 11 23 8 9 13 27 37 30 32 34 27 26 11 10 12 10 10 10 5 6 5 8 7 15 10 3 4 29 45 54 47 44
26 25 24 24 16 31 28 23 29 25 27 24 9 16 10 6 12 25 31 29 29 29 28 21 21 13 12 15 10 8 4 10 15 14 16 13 10 8 8 18 36 45 49 46 45
26 22 25 26 24 33 33 36 32 27 39 33 19 8 5 13 17 33 28 29 36 29 26 16 14 24 23 11 11 8 18 11 8 11 10 7 5 3 14 26 38 46 45 45 47
23 24 30 21 27 26 25 34 28 38 35 22 24 36 38 21 25 32 29 36 26 20 20 17 27 4 16 13 14 12 10 6 10 7 7 7 2 10 15 30 36 39 46 47 49
21 25 26 20 18 22 20 33 40 50 37 23 19 24 16 24 29 31 37 39 33 26 26 21 18 29 11 25 10 9 8 4 4 3 4 7 12 5 21 36 41 42 45 48 51
22 27 27 18 24 22 28 38 43 36 37 26 13 16 12 24 27 28 31 37 37 37 30 19 16 13 10 9 8 9 5 1 4 6 5 3 9 8 24 33 39 43 46 51 55
19 23 25 26 23 28 39 38 33 30 24 31 3 18 13 14 21 23 28 32 34 31 19 16 13 8 8 7 5 8 7 0 5 2 3 2 18 1 21 32 42 46 49 53 59
16 21 25 27 33 37 36 20 10 29 54 19 21 25 22 24 20 19 25 30 25 17 8 11 12 5 11 6 8 11 8 4 5 4 3 12 15 19 27 41 49 56 60 64 67
13 17 22 25 33 22 15 11 16 21 26 38 37 36 22 13 15 18 14 10 11 8 7 12 10 1 8 7 13 11 9 1 5 4 3 11 19 25 26 39 59 68 73 75 69
12 12 22 26 19 18 37 31 19 12 14 21 25 20 14 13 11 14 12 10 11 9 12 12 5 3 9 9 11 6 5 2 3 6 1 13 15 10 10 44 52 75 80 75 76
9 15 18 21 15 20 26 19 12 9 9 11 15 13 13 9 10 11 14 7 7 8 6 9 6 7 11 9 8 4 4 3 5 8 4 8 11 12 8 15 17 48 59 73 75
7 16 20 12 16 8 10 13 9 1 10 12 8 9 22 15 4 10 19 10 8 7 6 1 2 7 6 7 5 4 7 5 3 4 6 7 1 16 7 13 16 29 52 65 78
4 19 23 12 7 8 5 9 9 12 1 7 8 7 8 13 7 8 8 13 8 7 7 3 1 3 6 4 5 5 8 13 8 5 4 7 8 12 6 8 11 8 18 30 49
5 17 21 21 11 3 4 10 10 11 7 5 5 6 6 5 6 6 5 5 5 7 3 1 1 1 4 7 5 11 10 5 9 7 8 3 6 18 20 23 14 27 50 37 32
6 14 20 19 20 12 4 10 12 9 8 3 4 5 6 2 6 7 5 2 2 6 4 8 6 11 7 10 10 9 11 8 9 5 7 5 11 13 14 14 24 24 28 31 31
10 12 15 20 18 16 1 8 12 12 11 13 7 9 1 2 6 7 2 4 6 11 10 8 8 4 4 4 13 8 7 8 4 1 1 9 13 18 13 15 18 31 26 28 30
14 12 12 16 17 18 9 6 4 6 7 6 8 6 9 8 7 7 9 6 6 18 2 4 3 2 4 5 1 10 12 5 3 5 10 9 9 13 13 13 18 18 19 23 25
18 11 10 16 15 8 7 11 7 6 2 5 4 6 6 10 11 9 11 5 8 3 9 4 5 6 4 7 15 5 6 4 7 9 7 7 10 12 11 8 12 25 27 35 44
19 4 15 24 8 7 6 2 9 1 1 4 6 7 12 11 7 6 11 8 8 11 12 11 6 6 16 5 5 6 5 11 8 10 8 5 24 8 16 15 18 44 48 46 34
15 7 17 32 8 2 7 5 4 4 5 1 2 2 4 11 4 10 8 6 10 9 10 9 3 4 16 11 4 10 10 9 4 2 17 15 22 3 5 13 15 21 29 36 35
16 4 6 12 9 17 10 6 5 10 3 2 3 6 6 1 4 5 6 4 5 2 1 13 9 12 11 7 2 7 11 16 16 16 37 33 49 60 32 21 45 69 67 85 71
19 7 13 6 7 12 8 10 12 10 7 12 2 9 11 4 3 6 4 3 8 7 6 6 6 2 7 9 3 12 18 17 17 38 30 45 41 49 48 16 36 49 61 66 68
21 14 15 9 26 17 11 15 19 8 16 10 11 17 14 13 14 14 10 7 4 7 7 6 4 5 8 13 15 34 30 26 30 32 32 37 44 45 83 54 56 64 53 58 68
39 28 12 20 11 10 11 15 21 20 19 18 22 10 9 19 16 10 6 4 4 10 8 7 4 3 21 5 13 31 19 30 32 41 28 38 50 51 47 56 56 43 43 59 68
Wind_Direction_500mb
7 4 17 38 144 239 262 310 163 175 187 171 170 159 174 182 179 166 176 143 150 161 162 155 158 154 144 91 94 78 69 145 166 159 161 157 114 71 96 124 82 163 153 166 165
14 6 20 21 5 267 300 303 158 154 184 186 176 149 167 171 156 147 125 131 148 162 163 163 163 159 94 77 49 62 87 164 135 195 162 90 104 122 127 119 83 127 152 162 170
13 7 11 23 90 271 94 138 144 138 157 185 176 162 167 166 167 81 124 124 144 158 160 162 153 136 85 88 53 42 115 161 84 110 130 118 93 116 130 181 184 161 154 170 181
23 17 9 48 44 31 105 118 133 146 152 177 175 175 170 236 178 110 132 127 133 147 151 145 145 86 77 77 66 101 61 111 133 91 99 93 124 92 103 241 168 167 166 170 180
29 27 48 54 1 53 68 92 114 133 135 175 198 154 166 114 76 116 124 117 119 134 134 133 106 96 99 100 99 77 108 78 104 97 88 122 74 141 125 143 163 172 177 183 182
35 47 64 54 11 62 73 87 106 119 121 177 158 114 101 70 77 114 117 116 119 128 128 114 131 108 90 78 71 104 99 91 68 84 83 106 114 93 177 163 168 183 184 191 194
48 77 62 83 30 53 82 82 102 122 115 161 132 98 84 49 94 104 108 105 112 128 124 111 119 153 110 95 108 97 78 57 44 22 54 94 310 239 186 180 185 192 198 202 211
59 67 75 73 60 57 84 97 115 118 130 173 131 84 70 82 100 101 110 109 109 114 116 99 110 99 80 111 66 68 59 82 352 120 49 77 274 260 190 186 197 201 205 206 215
63 75 82 59 61 68 95 114 110 97 86 138 173 91 71 99 107 84 113 113 111 114 105 108 102 69 73 87 69 39 134 176 309 205 109 141 264 353 197 202 210 211 213 215 218
67 83 84 87 76 99 112 103 92 107 83 114 199 68 61 60 78 87 97 119 113 115 96 56 59 62 32 61 180 155 118 290 262 352 71 231 266 269 210 217 228 228 228 228 229
82 96 94 93 106 116 118 108 94 66 58 74 84 80 88 87 90 106 98 121 109 64 66 40 72 125 164 81 69 103 75 53 301 357 184 245 264 269 226 224 236 236 236 236 236
100 102 99 109 128 100 130 93 85 114 59 78 82 80 74 76 87 82 79 88 67 72 32 37 67 245 125 54 87 71 90 347 287 4 187 313 273 258 213 220 226 233 234 236 239
123 127 118 126 135 109 131 113 110 114 98 38 45 52 44 78 60 37 32 81 86 63 60 88 331 102 118 75 69 51 112 212 198 350 54 327 281 265 274 232 231 237 244 244 240
138 150 134 132 122 117 106 103 79 53 92 348 349 29 22 113 63 55 52 59 52 123 103 87 340 79 71 74 108 49 315 80 79 44 299 37 292 302 302 285 239 247 246 245 247
138 170 152 156 128 120 85 77 41 67 76 324 356 29 50 76 127 20 37 42 57 84 80 109 87 131 138 149 120 198 47 78 105 72 24 345 34 274 346 300 272 252 252 255 253
154 179 176 173 153 132 82 12 349 45 194 333 342 22 56 31 41 37 38 49 77 75 45 79 77 101 145 96 111 100 52 39 49 61 11 249 145 282 241 231 307 286 304 277 259
178 181 193 180 194 225 353 344 41 100 286 301 42 51 62 40 52 45 62 52 114 104 146 83 221 186 135 92 54 77 71 338 359 5 236 154 211 257 274 263 232 272 295 296 279
183 178 190 187 193 206 0 37 83 223 209 136 130 68 97 104 24 44 59 143 284 83 119 165 302 178 188 171 171 169 152 162 237 225 267 102 241 244 225 270 290 274 280 293 292
175 181 190 198 191 193 26 42 209 205 167 145 73 96 309 113 118 73 41 247 251 198 183 151 266 345 146 147 143 181 167 176 53 74 8 229 288 298 325 316 297 277 277 284 292
176 168 198 206 192 174 77 234 230 263 112 96 127 156 164 185 124 148 183 221 249 211 274 224 288 196 9 130 23 161 161 93 21 259 258 274 272 242 294 324 328 330 318 319 307
168 151 201 204 173 145 154 213 230 238 167 128 124 129 227 177 163 166 188 250 218 345 184 157 124 301 63 199 180 134 189 150 161 173 227 312 262 218 234 274 272 292 307 319 316
167 79 176 173 76 356 152 126 340 207 94 71 118 127 186 174 153 212 220 228 198 161 158 206 161 209 230 234 14 325 268 166 176 233 233 256 262 210 243 268 294 294 306 310 309
171 119 170 172 142 204 2 312 327 12 319 24 210 350 8 172 167 211 202 275 203 166 169 186 281 19 332 357 77 203 194 220 289 138 239 243 264 154 291 316 320 309 325 335 334
168 91 134 179 134 138 153 219 206 194 198 249 121 48 41 291 35 209 222 338 71 159 136 164 177 183 190 196 137 246 219 218 206 237 250 246 266 277 271 300 298 293 300 302 306
182 207 164 201 219 144 142 149 163 164 185 185 225 203 167 138 34 234 273 305 16 12 71 89 206 201 253 259 266 245 250 253 230 246 247 262 256 272 277 258 275 292 290 293 299
176 160 151 145 147 119 184 213 176 181 150 214 168 200 188 179 184 194 175 221 213 17 50 23 279 44 285 298 270 267 271 268 261 261 269 268 277 268 288 288 277 276 289 294 294
195 177 174 160 153 120 207 185 198 163 203 180 190 145 198 222 206 148 158 133 177 165 143 141 181 113 275 342 322 271 231 243 255 250 251 259 262 277 276 281 281 298 302 296 296
Wind_Speed_850mb
35 31 23 14 6 33 40 54 37 32 38 25 17 17 22 24 31 32 23 27 40 29 27 27 32 33 26 19 15 14 8 6 9 8 8 4 9 9 10 20 6 12 30 39 50
35 34 28 17 9 20 37 32 32 37 43 21 19 14 23 26 24 22 24 33 35 27 34 32 37 33 13 11 12 13 6 9 4 1 6 6 11 15 9 11 8 20 32 53 49
29 37 29 21 11 21 15 28 27 28 28 25 20 11 24 28 13 11 26 37 31 34 35 33 32 25 15 11 12 5 5 7 4 8 8 11 9 7 27 2 16 43 55 51 53
28 29 23 13 26 50 35 34 32 25 24 22 17 11 23 8 9 13 27 37 30 32 34 27 26 11 10 12 10 10 10 5 6 5 8 7 15 10 3 4 29 45 54 47 44
26 25 24 24 16 31 28 23 29 25 27 24 9 16 10 6 12 25 31 29 29 29 28 21 21 13 12 15 10 8 4 10 15 14 16 13 10 8 8 18 36 45 49 46 45
26 22 25 26 24 33 33 36 32 27 39 33 19 8 5 13 17 33 28 29 36 29 26 16 14 24 23 11 11 8 18 11 8 11 10 7 5 3 14 26 38 46 45 45 47
23 24 30 21 27 26 25 34 28 38 35 22 24 36 38 21 25 32 29 36 26 20 20 17 27 4 16 13 14 12 10 6 10 7 7 7 2 10 15 30 36 39 46 47 49
21 25 26 20 18 22 20 33 40 50 37 23 19 24 16 24 29 31 37 39 33 26 26 21 18 29 11 25 10 9 8 4 4 3 4 7 12 5 21 36 41 42 45 48 51
22 27 27 18 24 22 28 38 43 36 37 26 13 16 12 24 27 28 31 37 37 37 30 19 16 13 10 9 8 9 5 1 4 6 5 3 9 8 24 33 39 43 46 51 55
19 23 25 26 23 28 39 38 33 30 24 31 3 18 13 14 21 23 28 32 34 31 19 16 13 8 8 7 5 8 7 0 5 2 3 2 18 1 21 32 42 46 49 53 59
16 21 25 27 33 37 36 20 10 29 54 19 21 25 22 24 20 19 25 30 25 17 8 11 12 5 11 6 8 11 8 4 5 4 3 12 15 19 27 41 49 56 60 64 67
13 17 22 25 33 22 15 11 16 21 26 38 37 36 22 13 15 18 14 10 11 8 7 12 10 1 8 7 13 11 9 1 5 4 3 11 19 25 26 39 59 68 73 75 69
12 12 22 26 19 18 37 31 19 12 14 21 25 20 14 13 11 14 12 10 11 9 12 12 5 3 9 9 11 6 5 2 3 6 1 13 15 10 10 44 52 75 80 75 76
9 15 18 21 15 20 26 19 12 9 9 11 15 13 13 9 10 11 14 7 7 8 6 9 6 7 11 9 8 4 4 3 5 8 4 8 11 12 8 15 17 48 59 73 75
7 16 20 12 16 8 10 13 9 1 10 12 8 9 22 15 4 10 19 10 8 7 6 1 2 7 6 7 5 4 7 5 3 4 6 7 1 16 7 13 16 29 52 65 78
4 19 23 12 7 8 5 9 9 12 1 7 8 7 8 13 7 8 8 13 8 7 7 3 1 3 6 4 5 5 8 13 8 5 4 7 8 12 6 8 11 8 18 30 49
5 17 21 21 11 3 4 10 10 11 7 5 5 6 6 5 6 6 5 5 5 7 3 1 1 1 4 7 5 11 10 5 9 7 8 3 6 18 20 23 14 27 50 37 32
6 14 20 19 20 12 4 10 12 9 8 3 4 5 6 2 6 7 5 2 2 6 4 8 6 11 7 10 10 9 11 8 9 5 7 5 11 13 14 14 24 24 28 31 31
10 12 15 20 18 16 1 8 12 12 11 13 7 9 1 2 6 7 2 4 6 11 10 8 8 4 4 4 13 8 7 8 4 1 1 9 13 18 13 15 18 31 26 28 30
14 12 12 16 17 18 9 6 4 6 7 6 8 6 9 8 7 7 9 6 6 18 2 4 3 2 4 5 1 10 12 5 3 5 10 9 9 13 13 13 18 18 19 23 25
18 11 10 16 15 8 7 11 7 6 2 5 4 6 6 10 11 9 11 5 8 3 9 4 5 6 4 7 15 5 6 4 7 9 7 7 10 12 11 8 12 25 27 35 44
19 4 15 24 8 7 6 2 9 1 1 4 6 7 12 11 7 6 11 8 8 11 12 11 6 6 16 5 5 6 5 11 8 10 8 5 24 8 16 15 18 44 48 46 34
15 7 17 32 8 2 7 5 4 4 5 1 2 2 4 11 4 10 8 6 10 9 10 9 3 4 16 11 4 10 10 9 4 2 17 15 22 3 5 13 15 21 29 36 35
16 4 6 12 9 17 10 6 5 10 3 2 3 6 6 1 4 5 6 4 5 2 1 13 9 12 11 7 2 7 11 16 16 16 37 33 49 60 32 21 45 69 67 85 71
19 7 13 6 7 12 8 10 12 10 7 12 2 9 11 4 3 6 4 3 8 7 6 6 6 2 7 9 3 12 18 17 17 38 30 45 41 49 48 16 36 49 61 66 68
21 14 15 9 26 17 11 15 19 8 16 10 11 17 14 13 14 14 10 7 4 7 7 6 4 5 8 13 15 34 30 26 30 32 32 37 44 45 83 54 56 64 53 58 68
39 28 12 20 11 10 11 15 21 20 19 18 22 10 9 19 16 10 6 4 4 10 8 7 4 3 21 5 13 31 19 30 32 41 28 38 50 51 47 56 56 43 43 59 68
Wind_Direction_850mb
7 4 17 38 144 239 262 310 163 175 187 171 170 159 174 182 179 166 176 143 150 161 162 155 158 154 144 91 94 78 69 145 166 159 161 157 114 71 96 124 82 163 153 166 165
14 6 20 21 5 267 300 303 158 154 184 186 176 149 167 171 156 147 125 131 148 162 163 163 163 159 94 77 49 62 87 164 135 195 162 90 104 122 127 119 83 127 152 162 170
13 7 11 23 90 271 94 138 144 138 157 185 176 162 167 166 167 81 124 124 144 158 160 162 153 136 85 88 53 42 115 161 84 110 130 118 93 116 130 181 184 161 154 170 181
23 17 9 48 44 31 105 118 133 146 152 177 175 175 170 236 178 110 132 127 133 147 151 145 145 86 77 77 66 101 61 111 133 91 99 93 124 92 103 241 168 167 166 170 180
29 27 48 54 1 53 68 92 114 133 135 175 198 154 166 114 76 116 124 117 119 134 134 133 106 96 99 100 99 77 108 78 104 97 88 122 74 141 125 143 163 172 177 183 182
35 47 64 54 11 62 73 87 106 119 121 177 158 114 101 70 77 114 117 116 119 128 128 114 131 108 90 78 71 104 99 91 68 84 83 106 114 93 177 163 168 183 184 191 194
48 77 62 83 30 53 82 82 102 122 115 161 132 98 84 49 94 104 108 105 112 128 124 111 119 153 110 95 108 97 78 57 44 22 54 94 310 239 186 180 185 192 198 202 211
59 67 75 73 60 57 84 97 115 118 130 173 131 84 70 82 100 101 110 109 109 114 116 99 110 99 80 111 66 68 59 82 352 120 49 77 274 260 190 186 197 201 205 206 215
63 75 82 59 61 68 95 114 110 97 86 138 173 91 71 99 107 84 113 113 111 114 105 108 102 69 73 87 69 39 134 176 309 205 109 141 264 353 197 202 210 211 213 215 218
67 83 84 87 76 99 112 103 92 107 83 114 199 68 61 60 78 87 97 119 113 115 96 56 59 62 32 61 180 155 118 290 262 352 71 231 266 269 210 217 228 228 228 228 229
82 96 94 93 106 116 118 108 94 66 58 74 84 80 88 87 90 106 98 121 109 64 66 40 72 125 164 81 69 103 75 53 301 357 184 245 264 269 226 224 236 236 236 236 236
100 102 99 109 128 100 130 93 85 114 59 78 82 80 74 76 87 82 79 88 67 72 32 37 67 245 125 54 87 71 90 347 287 4 187 313 273 258 213 220 226 233 234 236 239
123 127 118 126 135 109 131 113 110 114 98 38 45 52 44 78 60 37 32 81 86 63 60 88 331 102 118 75 69 51 112 212 198 350 54 327 281 265 274 232 231 237 244 244 240
138 150 134 132 122 117 106 103 79 53 92 348 349 29 22 113 63 55 52 59 52 123 103 87 340 79 71 74 108 49 315 80 79 44 299 37 292 302 302 285 239 247 246 245 247
138 170 152 156 128 120 85 77 41 67 76 324 356 29 50 76 127 20 37 42 57 84 80 109 87 131 138 149 120 198 47 78 105 72 24 345 34 274 346 300 272 252 252 255 253
154 179 176 173 153 132 82 12 349 45 194 333 342 22 56 31 41 37 38 49 77 75 45 79 77 101 145 96 111 100 52 39 49 61 11 249 145 282 241 231 307 286 304 277 259
178 181 193 180 194 225 353 344 41 100 286 301 42 51 62 40 52 45 62 52 114 104 146 83 221 186 135 92 54 77 71 338 359 5 236 154 211 257 274 263 232 272 295 296 279
183 178 190 187 193 206 0 37 83 223 209 136 130 68 97 104 24 44 59 143 284 83 119 165 302 178 188 171 171 169 152 162 237 225 267 102 241 244 225 270 290 274 280 293 292
175 181 190 198 191 193 26 42 209 205 167 145 73 96 309 113 118 73 41 247 251 198 183 151 266 345 146 147 143 181 167 176 53 74 8 229 288 298 325 316 297 277 277 284 292
176 168 198 206 192 174 77 234 230 263 112 96 127 156 164 185 124 148 183 221 249 211 274 224 288 196 9 130 23 161 161 93 21 259 258 274 272 242 294 324 328 330 318 319 307
168 151 201 204 173 145 154 213 230 238 167 128 124 129 227 177 163 166 188 250 218 345 184 157 124 301 63 199 180 134 189 150 161 173 227 312 262 218 234 274 272 292 307 319 316
167 79 176 173 76 356 152 126 340 207 94 71 118 127 186 174 153 212 220 228 198 161 158 206 161 209 230 234 14 325 268 166 176 233 233 256 262 210 243 268 294 294 306 310 309
171 119 170 172 142 204 2 312 327 12 319 24 210 350 8 172 167 211 202 275 203 166 169 186 281 19 332 357 77 203 194 220 289 138 239 243 264 154 291 316 320 309 325 335 334
168 91 134 179 134 138 153 219 206 194 198 249 121 48 41 291 35 209 222 338 71 159 136 164 177 183 190 196 137 246 219 218 206 237 250 246 266 277 271 300 298 293 300 302 306
182 207 164 201 219 144 142 149 163 164 185 185 225 203 167 138 34 234 273 305 16 12 71 89 206 201 253 259 266 245 250 253 230 246 247 262 256 272 277 258 275 292 290 293 299
176 160 151 145 147 119 184 213 176 181 150 214 168 200 188 179 184 194 175 221 213 17 50 23 279 44 285 298 270 267 271 268 261 261 269 268 277 268 288 288 277 276 289 294 294
195 177 174 160 153 120 207 185 198 163 203 180 190 145 198 222 206 148 158 133 177 165 143 141 181 113 275 342 322 271 231 243 255 250 251 259 262 277 276 281 281 298 302 296 296